Time,TemperatureF,DewpointF,PressureIn,WindDirection,WindDirectionDegrees,WindSpeedMPH,WindSpeedGustMPH,Humidity,HourlyPrecipIn,Conditions,Clouds,dailyrainin,SoftwareType,DateUTC
2013-01-29 00:02:00,69.4,64.3,29.57,South,180,11.9,11.9,84,0.00,,,0.00,WUHU21623XXSP,2013-01-29 06:02:00,
2013-01-29 00:07:00,69.4,64.3,29.57,South,180,6.7,11.9,84,0.00,,,0.00,WUHU21623XXSP,2013-01-29 06:07:00,
2013-01-29 00:12:00,69.4,64.3,29.57,South,180,16.8,18.6,84,0.00,,,0.00,WUHU21623XXSP,2013-01-29 06:12:00,
2013-01-29 00:17:00,69.4,64.3,29.57,SSW,202,7.6,18.6,84,0.00,,,0.00,WUHU21623XXSP,2013-01-29 06:17:00,
2013-01-29 00:22:00,69.4,64.3,29.57,South,180,6.7,9.2,84,0.00,,,0.00,WUHU21623XXSP,2013-01-29 06:22:00,
2013-01-29 00:27:00,69.4,64.3,29.57,SSW,202,11.0,11.0,84,0.00,,,0.00,WUHU21623XXSP,2013-01-29 06:27:00,
2013-01-29 00:32:00,69.4,64.3,29.57,South,180,17.0,17.0,84,0.00,,,0.00,WUHU21623XXSP,2013-01-29 06:32:00,
2013-01-29 00:37:00,69.4,64.3,29.57,South,180,17.0,17.0,84,0.00,,,0.00,WUHU21623XXSP,2013-01-29 06:37:00,
2013-01-29 00:42:00,69.4,64.3,29.57,South,180,4.5,17.0,84,0.00,,,0.00,WUHU21623XXSP,2013-01-29 06:42:00,
2013-01-29 00:47:00,69.4,64.3,29.56,South,180,5.1,5.8,84,0.00,,,0.00,WUHU21623XXSP,2013-01-29 06:47:00,
2013-01-29 00:52:00,69.3,64.2,29.55,South,180,5.1,5.1,84,0.00,,,0.00,WUHU21623XXSP,2013-01-29 06:52:00,
2013-01-29 00:57:00,69.4,64.3,29.55,SSW,202,12.1,12.1,84,0.00,,,0.00,WUHU21623XXSP,2013-01-29 06:57:00,
2013-01-29 01:02:00,69.3,64.2,29.55,SSW,202,5.1,12.1,84,0.00,,,0.00,WUHU21623XXSP,2013-01-29 07:02:00,
2013-01-29 01:07:00,69.3,64.2,29.55,SSE,157,8.5,12.1,84,0.00,,,0.00,WUHU21623XXSP,2013-01-29 07:07:00,
2013-01-29 01:12:00,69.3,64.2,29.54,SSE,157,4.0,8.5,84,0.00,,,0.00,WUHU21623XXSP,2013-01-29 07:12:00,
2013-01-29 01:17:00,69.1,64.2,29.54,SSE,157,4.0,6.9,84,0.00,,,0.00,WUHU21623XXSP,2013-01-29 07:17:00,
2013-01-29 01:22:00,69.1,64.0,29.54,SSE,157,10.5,14.3,84,0.00,,,0.00,WUHU21623XXSP,2013-01-29 07:22:00,
2013-01-29 01:27:00,69.1,64.0,29.54,SE,135,5.8,14.3,84,0.00,,,0.00,WUHU21623XXSP,2013-01-29 07:27:00,
2013-01-29 01:32:00,69.1,64.0,29.54,ESE,112,4.3,10.5,84,0.00,,,0.00,WUHU21623XXSP,2013-01-29 07:32:00,
2013-01-29 01:37:00,69.1,64.0,29.54,SSE,157,8.1,8.1,84,0.00,,,0.00,WUHU21623XXSP,2013-01-29 07:37:00,
2013-01-29 01:42:00,69.1,64.0,29.53,SSE,157,9.8,10.5,84,0.00,,,0.00,WUHU21623XXSP,2013-01-29 07:42:00,
2013-01-29 01:47:00,68.9,64.2,29.53,South,180,12.3,18.8,85,0.00,,,0.00,WUHU21623XXSP,2013-01-29 07:47:00,
2013-01-29 01:52:00,68.9,64.2,29.53,SSE,157,7.2,18.8,85,0.00,,,0.00,WUHU21623XXSP,2013-01-29 07:52:00,
2013-01-29 01:57:00,68.7,64.0,29.53,SSE,157,8.1,14.3,85,0.00,,,0.00,WUHU21623XXSP,2013-01-29 07:57:00,
2013-01-29 02:02:00,68.7,64.0,29.52,South,180,8.3,8.3,85,0.00,,,0.00,WUHU21623XXSP,2013-01-29 08:02:00,
2013-01-29 02:07:00,68.5,63.8,29.52,South,180,9.4,19.5,85,0.00,,,0.00,WUHU21623XXSP,2013-01-29 08:07:00,
2013-01-29 02:12:00,68.5,63.8,29.52,SE,135,5.8,19.5,85,0.00,,,0.00,WUHU21623XXSP,2013-01-29 08:12:00,
2013-01-29 02:17:00,68.4,64.0,29.52,South,180,10.1,10.1,86,0.00,,,0.00,WUHU21623XXSP,2013-01-29 08:17:00,
2013-01-29 02:22:00,68.4,64.0,29.52,SSE,157,3.4,10.1,86,0.00,,,0.00,WUHU21623XXSP,2013-01-29 08:22:00,
2013-01-29 02:27:00,68.2,63.8,29.52,SSE,157,5.8,10.1,86,0.00,,,0.00,WUHU21623XXSP,2013-01-29 08:27:00,
2013-01-29 02:32:00,68.2,63.8,29.52,SSE,157,5.8,5.8,86,0.00,,,0.00,WUHU21623XXSP,2013-01-29 08:32:00,
2013-01-29 02:37:00,68.2,63.8,29.52,SSE,157,18.1,18.1,86,0.00,,,0.00,WUHU21623XXSP,2013-01-29 08:37:00,
2013-01-29 02:42:00,68.2,63.8,29.52,SSE,157,4.7,18.1,86,0.00,,,0.00,WUHU21623XXSP,2013-01-29 08:42:00,
2013-01-29 02:47:00,68.2,63.8,29.52,SE,135,5.8,6.0,86,0.00,,,0.00,WUHU21623XXSP,2013-01-29 08:47:00,
2013-01-29 02:52:00,68.2,63.8,29.51,NNW,337,14.1,20.1,86,0.00,,,0.00,WUHU21623XXSP,2013-01-29 08:52:00,
2013-01-29 02:57:00,68.2,63.8,29.51,SSE,157,9.8,20.1,86,0.00,,,0.00,WUHU21623XXSP,2013-01-29 08:57:00,
2013-01-29 03:02:00,68.4,64.0,29.51,South,180,11.6,14.1,86,0.00,,,0.00,WUHU21623XXSP,2013-01-29 09:02:00,
2013-01-29 03:07:00,68.4,64.0,29.51,SSE,157,18.3,18.3,86,0.00,,,0.00,WUHU21623XXSP,2013-01-29 09:07:00,
2013-01-29 03:12:00,68.4,64.0,29.51,South,180,8.3,18.3,86,0.00,,,0.00,WUHU21623XXSP,2013-01-29 09:12:00,
2013-01-29 03:17:00,68.5,64.1,29.51,South,180,8.9,21.0,86,0.00,,,0.00,WUHU21623XXSP,2013-01-29 09:17:00,
2013-01-29 03:22:00,68.5,64.1,29.51,South,180,9.8,21.0,86,0.00,,,0.00,WUHU21623XXSP,2013-01-29 09:22:00,
2013-01-29 03:28:00,68.5,64.1,29.50,SSE,157,6.9,11.9,86,0.00,,,0.00,WUHU21623XXSP,2013-01-29 09:28:00,
2013-01-29 03:33:00,68.5,64.1,29.50,South,180,18.3,18.3,86,0.00,,,0.00,WUHU21623XXSP,2013-01-29 09:33:00,
2013-01-29 03:38:00,68.5,64.1,29.50,SSW,202,12.5,18.3,86,0.00,,,0.00,WUHU21623XXSP,2013-01-29 09:38:00,
2013-01-29 03:43:00,68.5,64.1,29.50,South,180,14.8,14.8,85,0.00,,,0.00,WUHU21623XXSP,2013-01-29 09:43:00,
2013-01-29 03:48:00,68.5,64.1,29.50,SW,225,12.3,14.8,86,0.00,,,0.00,WUHU21623XXSP,2013-01-29 09:48:00,
2013-01-29 03:53:00,68.5,63.8,29.50,SW,225,12.3,14.8,86,0.00,,,0.00,WUHU21623XXSP,2013-01-29 09:53:00,
2013-01-29 03:58:00,68.5,64.1,29.50,South,180,17.7,19.2,86,0.00,,,0.00,WUHU21623XXSP,2013-01-29 09:58:00,
2013-01-29 04:03:00,68.5,64.1,29.49,South,180,17.7,19.2,86,0.00,,,0.00,WUHU21623XXSP,2013-01-29 10:03:00,
2013-01-29 04:08:00,68.5,64.1,29.50,SSW,202,13.4,17.7,86,0.00,,,0.00,WUHU21623XXSP,2013-01-29 10:08:00,
2013-01-29 04:13:00,68.5,64.1,29.49,South,180,7.2,13.4,85,0.00,,,0.00,WUHU21623XXSP,2013-01-29 10:13:00,
2013-01-29 04:18:00,68.5,63.8,29.49,SSW,202,13.9,13.9,85,0.00,,,0.00,WUHU21623XXSP,2013-01-29 10:18:00,
2013-01-29 04:23:00,68.5,63.8,29.49,SSW,202,21.3,21.3,85,0.00,,,0.00,WUHU21623XXSP,2013-01-29 10:23:00,
2013-01-29 04:28:00,68.5,63.8,29.49,SSE,157,12.3,21.3,85,0.00,,,0.00,WUHU21623XXSP,2013-01-29 10:28:00,
2013-01-29 04:33:00,68.5,63.8,29.49,SE,135,6.0,19.5,85,0.00,,,0.00,WUHU21623XXSP,2013-01-29 10:33:00,
2013-01-29 04:38:00,68.4,63.7,29.49,SSE,157,15.7,19.5,85,0.00,,,0.00,WUHU21623XXSP,2013-01-29 10:38:00,
2013-01-29 04:43:00,68.4,63.7,29.49,South,180,12.8,19.5,85,0.00,,,0.00,WUHU21623XXSP,2013-01-29 10:43:00,
2013-01-29 04:48:00,68.4,63.7,29.49,South,180,12.8,16.1,86,0.00,,,0.00,WUHU21623XXSP,2013-01-29 10:48:00,
2013-01-29 04:53:00,68.2,63.8,29.49,South,180,12.8,12.8,86,0.00,,,0.00,WUHU21623XXSP,2013-01-29 10:53:00,
2013-01-29 04:58:00,68.2,63.8,29.48,SE,135,13.2,13.2,86,0.00,,,0.00,WUHU21623XXSP,2013-01-29 10:58:00,
2013-01-29 05:03:00,68.2,63.8,29.48,SSW,202,11.2,13.2,86,0.00,,,0.00,WUHU21623XXSP,2013-01-29 11:03:00,
2013-01-29 05:08:00,68.2,63.8,29.48,SSE,157,11.2,13.2,86,0.00,,,0.00,WUHU21623XXSP,2013-01-29 11:08:00,
2013-01-29 05:13:00,68.2,63.8,29.47,ESE,112,11.6,17.2,86,0.00,,,0.00,WUHU21623XXSP,2013-01-29 11:13:00,
2013-01-29 05:18:00,68.2,63.8,29.47,SSE,157,18.3,18.3,86,0.00,,,0.00,WUHU21623XXSP,2013-01-29 11:18:00,
2013-01-29 05:23:00,67.8,63.8,29.47,SSE,157,17.0,18.3,87,0.00,,,0.00,WUHU21623XXSP,2013-01-29 11:23:00,
2013-01-29 05:28:00,67.8,63.8,29.47,SSE,157,9.8,17.0,87,0.00,,,0.00,WUHU21623XXSP,2013-01-29 11:28:00,
2013-01-29 05:33:00,67.8,63.8,29.46,South,180,12.3,19.5,87,0.00,,,0.00,WUHU21623XXSP,2013-01-29 11:33:00,
2013-01-29 05:38:00,67.8,63.8,29.47,South,180,10.5,19.5,87,0.00,,,0.00,WUHU21623XXSP,2013-01-29 11:38:00,
2013-01-29 05:43:00,67.8,63.8,29.47,South,180,15.0,16.8,87,0.00,,,0.00,WUHU21623XXSP,2013-01-29 11:43:00,
2013-01-29 05:48:00,67.8,63.8,29.47,SSW,202,11.4,17.0,87,0.00,,,0.00,WUHU21623XXSP,2013-01-29 11:48:00,
2013-01-29 05:53:00,67.8,63.8,29.47,SW,225,16.8,18.1,87,0.00,,,0.00,WUHU21623XXSP,2013-01-29 11:53:00,
2013-01-29 05:58:00,67.8,63.8,29.47,SE,135,8.9,18.1,87,0.00,,,0.00,WUHU21623XXSP,2013-01-29 11:58:00,
2013-01-29 06:03:00,67.8,63.8,29.46,SW,225,8.3,22.8,87,0.00,,,0.00,WUHU21623XXSP,2013-01-29 12:03:00,
2013-01-29 06:08:00,67.8,63.8,29.46,SSE,157,9.4,22.8,87,0.00,,,0.00,WUHU21623XXSP,2013-01-29 12:08:00,
2013-01-29 06:13:00,68.2,63.8,29.45,South,180,9.6,21.7,86,0.00,,,0.00,WUHU21623XXSP,2013-01-29 12:13:00,
2013-01-29 06:18:00,68.2,63.8,29.46,South,180,9.6,9.6,86,0.00,,,0.00,WUHU21623XXSP,2013-01-29 12:18:00,
2013-01-29 06:23:00,68.2,63.8,29.46,WSW,247,11.9,11.9,86,0.00,,,0.00,WUHU21623XXSP,2013-01-29 12:23:00,
2013-01-29 06:28:00,68.2,63.8,29.45,SSE,157,10.3,11.9,86,0.00,,,0.00,WUHU21623XXSP,2013-01-29 12:28:00,
2013-01-29 06:33:00,68.2,63.5,29.45,SW,225,11.6,11.9,85,0.00,,,0.00,WUHU21623XXSP,2013-01-29 12:33:00,
2013-01-29 06:38:00,68.2,63.5,29.45,SSW,202,11.6,16.8,85,0.00,,,0.00,WUHU21623XXSP,2013-01-29 12:38:00,
2013-01-29 06:43:00,68.2,63.5,29.45,SSW,202,12.8,16.8,85,0.00,,,0.00,WUHU21623XXSP,2013-01-29 12:43:00,
2013-01-29 06:48:00,68.2,63.5,29.45,SSE,157,6.5,14.5,85,0.00,,,0.00,WUHU21623XXSP,2013-01-29 12:48:00,
2013-01-29 06:53:00,68.2,63.5,29.45,South,180,15.4,17.4,85,0.00,,,0.00,WUHU21623XXSP,2013-01-29 12:53:00,
2013-01-29 06:58:00,68.2,63.5,29.44,SSE,157,17.2,17.4,85,0.00,,,0.00,WUHU21623XXSP,2013-01-29 12:58:00,
2013-01-29 07:03:00,68.2,63.5,29.44,SSE,157,22.4,22.4,85,0.00,,,0.00,WUHU21623XXSP,2013-01-29 13:03:00,
2013-01-29 07:08:00,68.2,63.5,29.45,SSW,202,10.3,22.4,85,0.00,,,0.00,WUHU21623XXSP,2013-01-29 13:08:00,
2013-01-29 07:13:00,68.2,63.5,29.45,SSE,157,12.3,14.5,85,0.00,,,0.00,WUHU21623XXSP,2013-01-29 13:13:00,
2013-01-29 07:18:00,68.2,63.5,29.44,SSE,157,15.0,15.0,85,0.00,,,0.00,WUHU21623XXSP,2013-01-29 13:18:00,
2013-01-29 07:23:00,68.2,63.5,29.44,ESE,112,8.9,24.8,85,0.00,,,0.00,WUHU21623XXSP,2013-01-29 13:23:00,
2013-01-29 07:28:00,68.2,63.5,29.44,ESE,112,8.9,24.8,85,0.00,,,0.00,WUHU21623XXSP,2013-01-29 13:28:00,
2013-01-29 07:33:00,68.2,63.3,29.43,South,180,10.3,17.2,85,0.00,,,0.00,WUHU21623XXSP,2013-01-29 13:33:00,
2013-01-29 07:38:00,68.0,63.3,29.43,SSE,157,13.4,17.2,85,0.00,,,0.00,WUHU21623XXSP,2013-01-29 13:38:00,
2013-01-29 07:43:00,68.0,63.3,29.42,South,180,15.0,15.0,85,0.00,,,0.00,WUHU21623XXSP,2013-01-29 13:43:00,
2013-01-29 07:48:00,68.0,63.3,29.42,SSE,157,15.2,15.2,85,0.00,,,0.00,WUHU21623XXSP,2013-01-29 13:48:00,
2013-01-29 07:53:00,68.0,63.3,29.42,South,180,8.3,15.2,85,0.00,,,0.00,WUHU21623XXSP,2013-01-29 13:53:00,
2013-01-29 07:58:00,68.0,63.3,29.42,South,180,12.8,12.8,85,0.00,,,0.00,WUHU21623XXSP,2013-01-29 13:58:00,
2013-01-29 08:03:00,68.2,63.5,29.42,South,180,14.8,18.1,85,0.00,,,0.00,WUHU21623XXSP,2013-01-29 14:03:00,
2013-01-29 08:08:00,68.0,63.3,29.42,SE,135,11.9,18.1,85,0.00,,,0.00,WUHU21623XXSP,2013-01-29 14:08:00,
2013-01-29 08:13:00,68.2,63.5,29.42,SSE,157,11.9,16.8,85,0.00,,,0.00,WUHU21623XXSP,2013-01-29 14:13:00,
2013-01-29 08:18:00,68.2,63.5,29.41,South,180,20.1,20.1,85,0.00,,,0.00,WUHU21623XXSP,2013-01-29 14:18:00,
2013-01-29 08:23:00,68.2,63.5,29.41,SSW,202,8.1,20.1,85,0.00,,,0.00,WUHU21623XXSP,2013-01-29 14:23:00,
2013-01-29 08:28:00,68.2,63.5,29.41,SE,135,17.9,19.7,85,0.00,,,0.00,WUHU21623XXSP,2013-01-29 14:28:00,
2013-01-29 08:33:00,68.2,63.5,29.41,South,180,14.5,19.7,85,0.00,,,0.00,WUHU21623XXSP,2013-01-29 14:33:00,
2013-01-29 08:38:00,68.2,63.5,29.41,South,180,13.0,22.4,85,0.00,,,0.00,WUHU21623XXSP,2013-01-29 14:38:00,
2013-01-29 08:43:00,68.4,63.7,29.41,SE,135,10.5,22.4,85,0.00,,,0.00,WUHU21623XXSP,2013-01-29 14:43:00,
2013-01-29 08:48:00,68.5,63.8,29.41,South,180,13.0,20.4,85,0.00,,,0.00,WUHU21623XXSP,2013-01-29 14:48:00,
2013-01-29 08:53:00,68.5,63.8,29.41,SE,135,12.3,19.0,85,0.00,,,0.00,WUHU21623XXSP,2013-01-29 14:53:00,
2013-01-29 08:58:00,68.7,64.0,29.39,SSE,157,10.5,17.9,85,0.00,,,0.00,WUHU21623XXSP,2013-01-29 14:58:00,
2013-01-29 09:03:00,68.9,64.2,29.39,ESE,112,17.2,19.0,85,0.00,,,0.00,WUHU21623XXSP,2013-01-29 15:03:00,
2013-01-29 09:08:00,69.1,64.3,29.39,SW,225,9.6,19.0,85,0.00,,,0.00,WUHU21623XXSP,2013-01-29 15:08:00,
2013-01-29 09:14:00,69.4,64.3,29.40,South,180,8.9,22.8,84,0.00,,,0.00,WUHU21623XXSP,2013-01-29 15:14:00,
2013-01-29 09:19:00,69.6,64.5,29.39,SSE,157,18.3,22.8,84,0.00,,,0.00,WUHU21623XXSP,2013-01-29 15:19:00,
2013-01-29 09:24:00,70.0,64.9,29.39,South,180,16.1,20.1,84,0.00,,,0.00,WUHU21623XXSP,2013-01-29 15:24:00,
2013-01-29 09:29:00,70.5,65.1,29.40,South,180,9.8,21.0,83,0.00,,,0.00,WUHU21623XXSP,2013-01-29 15:29:00,
2013-01-29 09:34:00,70.9,65.4,29.40,South,180,5.4,23.5,83,0.00,,,0.00,WUHU21623XXSP,2013-01-29 15:34:00,
2013-01-29 09:39:00,71.2,65.4,29.41,SSW,202,13.0,23.5,82,0.00,,,0.00,WUHU21623XXSP,2013-01-29 15:39:00,
2013-01-29 09:44:00,71.2,65.1,29.41,SSE,157,17.9,17.9,81,0.00,,,0.00,WUHU21623XXSP,2013-01-29 15:44:00,
2013-01-29 09:49:00,70.9,64.7,29.41,SSW,202,12.8,24.2,81,0.00,,,0.00,WUHU21623XXSP,2013-01-29 15:49:00,
2013-01-29 09:54:00,70.5,64.4,29.42,WSW,247,14.1,24.2,81,0.00,,,0.00,WUHU21623XXSP,2013-01-29 15:54:00,
2013-01-29 09:59:00,70.5,64.4,29.42,South,180,18.8,22.4,81,0.00,,,0.00,WUHU21623XXSP,2013-01-29 15:59:00,
2013-01-29 10:04:00,70.3,64.5,29.42,SW,225,13.0,18.8,82,0.00,,,0.00,WUHU21623XXSP,2013-01-29 16:04:00,
2013-01-29 10:09:00,70.2,64.5,29.41,SW,225,18.3,18.3,82,0.00,,,0.00,WUHU21623XXSP,2013-01-29 16:09:00,
2013-01-29 10:14:00,70.0,64.2,29.41,West,270,19.0,19.0,82,0.00,,,0.00,WUHU21623XXSP,2013-01-29 16:14:00,
2013-01-29 10:19:00,70.0,64.2,29.41,South,180,9.8,19.0,82,0.00,,,0.00,WUHU21623XXSP,2013-01-29 16:19:00,
2013-01-29 10:24:00,70.2,64.4,29.41,SSW,202,10.1,19.0,82,0.00,,,0.00,WUHU21623XXSP,2013-01-29 16:24:00,
2013-01-29 10:29:00,70.3,64.9,29.40,SSW,202,9.2,10.1,83,0.00,,,0.00,WUHU21623XXSP,2013-01-29 16:29:00,
2013-01-29 10:34:00,70.7,65.2,29.40,SSW,202,8.9,10.1,83,0.00,,,0.00,WUHU21623XXSP,2013-01-29 16:34:00,
2013-01-29 10:39:00,71.2,65.4,29.40,SW,225,10.3,14.5,82,0.00,,,0.00,WUHU21623XXSP,2013-01-29 16:39:00,
2013-01-29 10:44:00,71.4,65.3,29.40,SSW,202,12.8,22.8,81,0.00,,,0.00,WUHU21623XXSP,2013-01-29 16:44:00,
2013-01-29 10:49:00,71.8,65.6,29.41,SSW,202,11.2,22.8,81,0.00,,,0.00,WUHU21623XXSP,2013-01-29 16:49:00,
2013-01-29 10:54:00,72.0,65.8,29.40,SSW,202,15.7,15.7,81,0.00,,,0.00,WUHU21623XXSP,2013-01-29 16:54:00,
2013-01-29 10:59:00,72.5,66.0,29.39,SW,225,17.9,17.9,80,0.00,,,0.00,WUHU21623XXSP,2013-01-29 16:59:00,
2013-01-29 11:04:00,72.7,65.8,29.39,South,180,14.1,20.1,79,0.00,,,0.00,WUHU21623XXSP,2013-01-29 17:04:00,
2013-01-29 11:09:00,72.7,65.8,29.39,South,180,10.7,20.1,79,0.00,,,0.00,WUHU21623XXSP,2013-01-29 17:09:00,
2013-01-29 11:14:00,73.0,65.8,29.39,SE,135,8.7,17.4,78,0.00,,,0.00,WUHU21623XXSP,2013-01-29 17:14:00,
2013-01-29 11:19:00,73.0,65.8,29.38,SSW,202,19.0,19.0,78,0.00,,,0.00,WUHU21623XXSP,2013-01-29 17:19:00,
2013-01-29 11:24:00,73.2,66.0,29.38,South,180,19.2,19.2,78,0.00,,,0.00,WUHU21623XXSP,2013-01-29 17:24:00,
2013-01-29 11:29:00,73.2,65.6,29.38,South,180,15.7,20.4,77,0.00,,,0.00,WUHU21623XXSP,2013-01-29 17:29:00,
2013-01-29 11:34:00,73.2,65.6,29.37,SSE,157,17.4,20.4,77,0.00,,,0.00,WUHU21623XXSP,2013-01-29 17:34:00,
2013-01-29 11:39:00,73.6,65.9,29.36,SSW,202,9.2,19.5,77,0.00,,,0.00,WUHU21623XXSP,2013-01-29 17:39:00,
2013-01-29 11:44:00,73.9,66.3,29.35,SSW,202,19.2,19.5,77,0.00,,,0.00,WUHU21623XXSP,2013-01-29 17:44:00,
2013-01-29 11:49:00,74.1,66.1,29.35,SSE,157,13.2,19.2,76,0.00,,,0.00,WUHU21623XXSP,2013-01-29 17:49:00,
2013-01-29 11:54:00,74.8,66.4,29.35,South,180,13.0,14.1,75,0.00,,,0.00,WUHU21623XXSP,2013-01-29 17:54:00,
2013-01-29 11:59:00,75.0,66.2,29.35,South,180,17.2,17.2,74,0.00,,,0.00,WUHU21623XXSP,2013-01-29 17:59:00,
2013-01-29 12:04:00,75.4,66.1,29.34,SSE,157,12.8,17.2,73,0.00,,,0.00,WUHU21623XXSP,2013-01-29 18:04:00,
2013-01-29 12:09:00,75.7,66.1,29.34,SSW,202,14.5,14.5,72,0.00,,,0.00,WUHU21623XXSP,2013-01-29 18:09:00,
2013-01-29 12:14:00,75.7,66.1,29.33,SSE,157,19.7,19.7,72,0.00,,,0.00,WUHU21623XXSP,2013-01-29 18:14:00,
2013-01-29 12:19:00,75.6,65.9,29.33,SSE,157,19.0,19.7,72,0.00,,,0.00,WUHU21623XXSP,2013-01-29 18:19:00,
2013-01-29 12:24:00,75.4,65.7,29.33,SW,225,9.8,23.5,72,0.00,,,0.00,WUHU21623XXSP,2013-01-29 18:24:00,
2013-01-29 12:29:00,75.4,65.7,29.32,SSW,202,11.2,23.5,72,0.00,,,0.00,WUHU21623XXSP,2013-01-29 18:29:00,
2013-01-29 12:34:00,75.6,65.9,29.32,SSW,202,9.2,23.5,72,0.00,,,0.00,WUHU21623XXSP,2013-01-29 18:34:00,
2013-01-29 12:39:00,75.9,66.3,29.31,South,180,20.6,20.6,72,0.00,,,0.00,WUHU21623XXSP,2013-01-29 18:39:00,
2013-01-29 12:44:00,75.9,65.9,29.32,SSW,202,22.4,22.4,71,0.00,,,0.00,WUHU21623XXSP,2013-01-29 18:44:00,
2013-01-29 12:49:00,75.9,65.9,29.31,South,180,11.6,22.4,71,0.00,,,0.00,WUHU21623XXSP,2013-01-29 18:49:00,
2013-01-29 12:54:00,75.9,65.5,29.31,SSW,202,19.7,19.7,70,0.00,,,0.00,WUHU21623XXSP,2013-01-29 18:54:00,
2013-01-29 12:59:00,76.1,65.7,29.30,SW,225,6.3,22.4,70,0.00,,,0.00,WUHU21623XXSP,2013-01-29 18:59:00,
2013-01-29 13:04:00,76.1,65.7,29.30,South,180,19.2,22.4,70,0.00,,,0.00,WUHU21623XXSP,2013-01-29 19:04:00,
2013-01-29 13:09:00,76.1,65.7,29.29,SSW,202,11.4,19.2,70,0.00,,,0.00,WUHU21623XXSP,2013-01-29 19:09:00,
2013-01-29 13:14:00,76.5,65.6,29.29,South,180,13.4,20.1,69,0.00,,,0.00,WUHU21623XXSP,2013-01-29 19:14:00,
2013-01-29 13:19:00,76.6,65.8,29.28,South,180,11.0,20.1,69,0.00,,,0.00,WUHU21623XXSP,2013-01-29 19:19:00,
2013-01-29 13:24:00,76.8,65.8,29.28,South,180,10.3,11.4,69,0.00,,,0.00,WUHU21623XXSP,2013-01-29 19:24:00,
2013-01-29 13:29:00,76.5,65.1,29.28,SSW,202,21.0,21.0,68,0.00,,,0.00,WUHU21623XXSP,2013-01-29 19:29:00,
2013-01-29 13:34:00,76.6,65.3,29.28,SSE,157,15.4,21.0,68,0.00,,,0.00,WUHU21623XXSP,2013-01-29 19:34:00,
2013-01-29 13:39:00,76.5,65.1,29.28,South,180,11.4,15.4,68,0.00,,,0.00,WUHU21623XXSP,2013-01-29 19:39:00,
2013-01-29 13:44:00,76.3,64.9,29.27,South,180,8.1,18.1,68,0.00,,,0.00,WUHU21623XXSP,2013-01-29 19:44:00,
2013-01-29 13:49:00,76.5,65.1,29.26,South,180,11.6,18.1,68,0.00,,,0.00,WUHU21623XXSP,2013-01-29 19:49:00,
2013-01-29 13:54:00,76.8,65.5,29.26,South,180,16.8,22.6,68,0.00,,,0.00,WUHU21623XXSP,2013-01-29 19:54:00,
2013-01-29 13:59:00,77.0,65.2,29.26,SSE,157,19.9,22.6,67,0.00,,,0.00,WUHU21623XXSP,2013-01-29 19:59:00,
2013-01-29 14:04:00,77.5,65.3,29.27,SW,225,7.8,19.9,66,0.00,,,0.00,WUHU21623XXSP,2013-01-29 20:04:00,
2013-01-29 14:09:00,77.7,65.0,29.27,South,180,19.0,19.0,65,0.00,,,0.00,WUHU21623XXSP,2013-01-29 20:09:00,
2013-01-29 14:15:00,77.7,65.0,29.26,SSW,202,20.6,20.6,64,0.00,,,0.00,WUHU21623XXSP,2013-01-29 20:15:00,
2013-01-29 14:20:00,77.5,64.5,29.25,SW,225,7.4,20.6,64,0.00,,,0.00,WUHU21623XXSP,2013-01-29 20:20:00,
2013-01-29 14:25:00,77.5,64.4,29.25,South,180,21.3,21.3,64,0.00,,,0.00,WUHU21623XXSP,2013-01-29 20:25:00,
2013-01-29 14:30:00,77.5,64.4,29.26,South,180,17.9,21.3,64,0.00,,,0.00,WUHU21623XXSP,2013-01-29 20:30:00,
2013-01-29 14:35:00,77.4,63.8,29.25,SSE,157,11.2,19.7,63,0.00,,,0.00,WUHU21623XXSP,2013-01-29 20:35:00,
2013-01-29 14:40:00,77.5,63.9,29.25,SSW,202,10.7,11.4,63,0.00,,,0.00,WUHU21623XXSP,2013-01-29 20:40:00,
2013-01-29 14:45:00,77.7,64.1,29.25,South,180,17.4,17.4,63,0.00,,,0.00,WUHU21623XXSP,2013-01-29 20:45:00,
2013-01-29 14:50:00,77.9,63.8,29.25,SW,225,6.5,17.4,62,0.00,,,0.00,WUHU21623XXSP,2013-01-29 20:50:00,
2013-01-29 14:55:00,77.9,63.8,29.24,South,180,8.9,8.9,62,0.00,,,0.00,WUHU21623XXSP,2013-01-29 20:55:00,
2013-01-29 15:00:00,78.1,64.0,29.24,SSE,157,19.7,19.7,62,0.00,,,0.00,WUHU21623XXSP,2013-01-29 21:00:00,
2013-01-29 15:05:00,78.1,64.0,29.23,SSE,157,13.0,19.7,62,0.00,,,0.00,WUHU21623XXSP,2013-01-29 21:05:00,
2013-01-29 15:10:00,78.1,63.6,29.23,SSE,157,14.8,22.4,61,0.00,,,0.00,WUHU21623XXSP,2013-01-29 21:10:00,
2013-01-29 15:15:00,78.1,63.6,29.23,South,180,16.8,22.4,61,0.00,,,0.00,WUHU21623XXSP,2013-01-29 21:15:00,
2013-01-29 15:20:00,78.1,63.6,29.23,SSW,202,5.6,16.8,61,0.00,,,0.00,WUHU21623XXSP,2013-01-29 21:20:00,
2013-01-29 15:25:00,77.9,63.4,29.23,SW,225,7.2,13.4,61,0.00,,,0.00,WUHU21623XXSP,2013-01-29 21:25:00,
2013-01-29 15:30:00,77.9,63.4,29.23,WSW,247,5.4,13.4,61,0.00,,,0.00,WUHU21623XXSP,2013-01-29 21:30:00,
2013-01-29 15:35:00,77.9,63.0,29.23,SSW,202,19.7,21.9,60,0.00,,,0.00,WUHU21623XXSP,2013-01-29 21:35:00,
2013-01-29 15:40:00,78.1,63.1,29.22,SSW,202,8.9,21.9,60,0.00,,,0.00,WUHU21623XXSP,2013-01-29 21:40:00,
2013-01-29 15:45:00,78.3,62.8,29.22,SSW,202,9.8,10.5,59,0.00,,,0.00,WUHU21623XXSP,2013-01-29 21:45:00,
2013-01-29 15:50:00,78.4,62.5,29.22,South,180,9.8,10.5,58,0.00,,,0.00,WUHU21623XXSP,2013-01-29 21:50:00,
2013-01-29 15:55:00,78.4,62.5,29.23,SSE,157,7.8,9.8,57,0.00,,,0.00,WUHU21623XXSP,2013-01-29 21:55:00,
2013-01-29 16:00:00,78.4,61.4,29.23,SSW,202,19.7,19.7,56,0.00,,,0.00,WUHU21623XXSP,2013-01-29 22:00:00,
2013-01-29 16:05:00,78.4,61.4,29.25,WSW,247,6.3,19.7,56,0.00,,,0.00,WUHU21623XXSP,2013-01-29 22:05:00,
2013-01-29 16:10:00,78.1,58.0,29.27,WNW,292,14.3,14.3,50,0.00,,,0.00,WUHU21623XXSP,2013-01-29 22:10:00,
2013-01-29 16:15:00,76.3,53.9,29.27,NNW,337,12.3,17.7,46,0.00,,,0.00,WUHU21623XXSP,2013-01-29 22:15:00,
2013-01-29 16:20:00,75.0,52.2,29.27,WNW,292,5.8,17.7,45,0.00,,,0.00,WUHU21623XXSP,2013-01-29 22:20:00,
2013-01-29 16:25:00,74.1,51.9,29.27,West,270,9.8,12.3,46,0.00,,,0.00,WUHU21623XXSP,2013-01-29 22:25:00,
2013-01-29 16:30:00,73.2,51.4,29.28,NW,315,11.4,11.4,46,0.00,,,0.00,WUHU21623XXSP,2013-01-29 22:30:00,
2013-01-29 16:35:00,72.9,50.7,29.28,WNW,292,12.3,12.3,46,0.00,,,0.00,WUHU21623XXSP,2013-01-29 22:35:00,
2013-01-29 16:40:00,72.3,50.8,29.31,WNW,292,12.3,14.3,47,0.00,,,0.00,WUHU21623XXSP,2013-01-29 22:40:00,
2013-01-29 16:45:00,72.0,50.1,29.29,WNW,292,8.5,14.3,46,0.00,,,0.00,WUHU21623XXSP,2013-01-29 22:45:00,
2013-01-29 16:50:00,71.4,49.4,29.28,WNW,292,11.4,14.1,46,0.00,,,0.00,WUHU21623XXSP,2013-01-29 22:50:00,
2013-01-29 16:55:00,70.9,49.5,29.28,West,270,12.5,14.1,47,0.00,,,0.00,WUHU21623XXSP,2013-01-29 22:55:00,
2013-01-29 17:00:00,70.5,48.8,29.31,NW,315,4.7,12.5,47,0.00,,,0.00,WUHU21623XXSP,2013-01-29 23:00:00,
2013-01-29 17:05:00,70.2,49.5,29.31,NW,315,3.8,4.7,48,0.00,,,0.00,WUHU21623XXSP,2013-01-29 23:05:00,
2013-01-29 17:10:00,69.4,49.0,29.32,WNW,292,23.9,23.9,48,0.00,,,0.00,WUHU21623XXSP,2013-01-29 23:10:00,
2013-01-29 17:15:00,68.7,48.8,29.35,NNW,337,10.5,23.9,49,0.00,,,0.00,WUHU21623XXSP,2013-01-29 23:15:00,
2013-01-29 17:20:00,68.2,48.9,29.31,NW,315,6.9,23.9,50,0.00,,,0.00,WUHU21623XXSP,2013-01-29 23:20:00,
2013-01-29 17:25:00,67.6,48.6,29.33,NW,315,13.6,14.8,50,0.00,,,0.00,WUHU21623XXSP,2013-01-29 23:25:00,
2013-01-29 17:30:00,66.9,48.3,29.34,West,270,13.0,14.8,51,0.00,,,0.00,WUHU21623XXSP,2013-01-29 23:30:00,
2013-01-29 17:36:00,66.6,48.1,29.34,West,270,7.8,13.0,52,0.00,,,0.00,WUHU21623XXSP,2013-01-29 23:36:00,
2013-01-29 17:41:00,66.0,47.9,29.34,NW,315,8.1,8.1,52,0.00,,,0.00,WUHU21623XXSP,2013-01-29 23:41:00,
2013-01-29 17:46:00,65.8,48.2,29.35,WSW,247,9.2,9.2,53,0.00,,,0.00,WUHU21623XXSP,2013-01-29 23:46:00,
2013-01-29 17:51:00,65.3,47.7,29.34,West,270,10.5,13.6,53,0.00,,,0.00,WUHU21623XXSP,2013-01-29 23:51:00,
2013-01-29 17:56:00,64.9,47.3,29.35,WNW,292,14.5,14.5,53,0.00,,,0.00,WUHU21623XXSP,2013-01-29 23:56:00,
2013-01-29 18:01:00,64.6,47.1,29.35,WNW,292,8.3,14.5,53,0.00,,,0.00,WUHU21623XXSP,2013-01-30 00:01:00,
2013-01-29 18:06:00,64.6,47.0,29.35,WNW,292,4.9,9.2,53,0.00,,,0.00,WUHU21623XXSP,2013-01-30 00:06:00,
2013-01-29 18:11:00,64.2,47.1,29.34,West,270,4.0,9.2,54,0.00,,,0.00,WUHU21623XXSP,2013-01-30 00:11:00,
2013-01-29 18:16:00,64.2,46.6,29.35,WNW,292,2.2,5.4,53,0.00,,,0.00,WUHU21623XXSP,2013-01-30 00:16:00,
2013-01-29 18:21:00,64.2,46.6,29.34,NW,315,9.2,9.2,53,0.00,,,0.00,WUHU21623XXSP,2013-01-30 00:21:00,
2013-01-29 18:26:00,64.0,46.0,29.35,West,270,10.1,10.1,52,0.00,,,0.00,WUHU21623XXSP,2013-01-30 00:26:00,
2013-01-29 18:31:00,63.7,45.6,29.35,WNW,292,4.7,10.1,52,0.00,,,0.00,WUHU21623XXSP,2013-01-30 00:31:00,
2013-01-29 18:36:00,63.5,45.5,29.35,WNW,292,8.3,10.3,52,0.00,,,0.00,WUHU21623XXSP,2013-01-30 00:36:00,
2013-01-29 18:41:00,63.3,45.3,29.35,WNW,292,12.1,12.1,52,0.00,,,0.00,WUHU21623XXSP,2013-01-30 00:41:00,
2013-01-29 18:46:00,63.1,44.7,29.35,West,270,6.5,12.1,51,0.00,,,0.00,WUHU21623XXSP,2013-01-30 00:46:00,
2013-01-29 18:51:00,63.1,44.2,29.35,NW,315,7.4,10.5,50,0.00,,,0.00,WUHU21623XXSP,2013-01-30 00:51:00,
2013-01-29 18:56:00,63.1,44.2,29.36,WNW,292,8.7,10.5,50,0.00,,,0.00,WUHU21623XXSP,2013-01-30 00:56:00,
2013-01-29 19:01:00,63.0,43.4,29.36,NW,315,7.6,8.9,49,0.00,,,0.00,WUHU21623XXSP,2013-01-30 01:01:00,
2013-01-29 19:06:00,62.8,43.3,29.36,West,270,8.9,8.9,49,0.00,,,0.00,WUHU21623XXSP,2013-01-30 01:06:00,
2013-01-29 19:11:00,62.8,43.3,29.37,WNW,292,0.0,8.9,49,0.00,,,0.00,WUHU21623XXSP,2013-01-30 01:11:00,
2013-01-29 19:16:00,62.8,42.7,29.36,WNW,292,2.9,4.7,48,0.00,,,0.00,WUHU21623XXSP,2013-01-30 01:16:00,
2013-01-29 19:21:00,62.8,42.1,29.37,West,270,7.4,9.6,47,0.00,,,0.00,WUHU21623XXSP,2013-01-30 01:21:00,
2013-01-29 19:26:00,62.6,41.4,29.37,NW,315,4.9,9.6,46,0.00,,,0.00,WUHU21623XXSP,2013-01-30 01:26:00,
2013-01-29 19:31:00,62.4,40.7,29.38,West,270,10.1,10.1,45,0.00,,,0.00,WUHU21623XXSP,2013-01-30 01:31:00,
2013-01-29 19:36:00,62.4,40.7,29.38,NW,315,2.2,10.1,45,0.00,,,0.00,WUHU21623XXSP,2013-01-30 01:36:00,
2013-01-29 19:41:00,62.4,40.7,29.38,WNW,292,6.5,6.5,45,0.00,,,0.00,WUHU21623XXSP,2013-01-30 01:41:00,
2013-01-29 19:46:00,62.2,40.5,29.38,West,270,6.9,9.4,45,0.00,,,0.00,WUHU21623XXSP,2013-01-30 01:46:00,
2013-01-29 19:51:00,62.2,39.9,29.38,West,270,8.9,9.4,44,0.00,,,0.00,WUHU21623XXSP,2013-01-30 01:51:00,
2013-01-29 19:56:00,61.9,39.6,29.39,WNW,292,6.3,12.1,44,0.00,,,0.00,WUHU21623XXSP,2013-01-30 01:56:00,
2013-01-29 20:01:00,61.9,39.0,29.39,West,270,6.5,12.1,43,0.00,,,0.00,WUHU21623XXSP,2013-01-30 02:01:00,
2013-01-29 20:06:00,61.9,39.6,29.39,West,270,13.0,13.0,44,0.00,,,0.00,WUHU21623XXSP,2013-01-30 02:06:00,
2013-01-29 20:11:00,61.7,39.4,29.39,West,270,3.6,13.0,44,0.00,,,0.00,WUHU21623XXSP,2013-01-30 02:11:00,
2013-01-29 20:16:00,61.7,38.9,29.40,WSW,247,6.9,9.6,43,0.00,,,0.00,WUHU21623XXSP,2013-01-30 02:16:00,
2013-01-29 20:21:00,61.7,38.9,29.40,WNW,292,4.5,7.4,43,0.00,,,0.00,WUHU21623XXSP,2013-01-30 02:21:00,
2013-01-29 20:26:00,61.5,38.7,29.41,WNW,292,6.3,7.4,43,0.00,,,0.00,WUHU21623XXSP,2013-01-30 02:26:00,
2013-01-29 20:31:00,61.5,38.1,29.41,WSW,247,4.0,6.7,42,0.00,,,0.00,WUHU21623XXSP,2013-01-30 02:31:00,
2013-01-29 20:36:00,61.5,38.1,29.41,West,270,3.6,4.5,42,0.00,,,0.00,WUHU21623XXSP,2013-01-30 02:36:00,
2013-01-29 20:41:00,61.3,38.0,29.41,West,270,2.0,5.8,42,0.00,,,0.00,WUHU21623XXSP,2013-01-30 02:41:00,
2013-01-29 20:46:00,61.3,37.4,29.42,NW,315,10.3,10.3,41,0.00,,,0.00,WUHU21623XXSP,2013-01-30 02:46:00,
2013-01-29 20:51:00,61.2,37.2,29.42,West,270,3.8,11.6,41,0.00,,,0.00,WUHU21623XXSP,2013-01-30 02:51:00,
2013-01-29 20:56:00,61.0,36.5,29.43,WNW,292,6.9,13.0,40,0.00,,,0.00,WUHU21623XXSP,2013-01-30 02:56:00,
2013-01-29 21:01:00,61.0,35.8,29.43,West,270,3.6,13.0,39,0.00,,,0.00,WUHU21623XXSP,2013-01-30 03:01:00,
2013-01-29 21:06:00,61.0,35.8,29.43,WNW,292,14.5,14.5,39,0.00,,,0.00,WUHU21623XXSP,2013-01-30 03:06:00,
2013-01-29 21:11:00,60.6,34.0,29.43,WNW,292,10.3,14.5,37,0.00,,,0.00,WUHU21623XXSP,2013-01-30 03:11:00,
2013-01-29 21:16:00,60.6,34.0,29.44,West,270,9.8,14.5,37,0.00,,,0.00,WUHU21623XXSP,2013-01-30 03:16:00,
2013-01-29 21:21:00,60.4,33.8,29.43,West,270,11.0,13.9,37,0.00,,,0.00,WUHU21623XXSP,2013-01-30 03:21:00,
2013-01-29 21:26:00,60.4,33.8,29.44,NW,315,5.6,13.9,37,0.00,,,0.00,WUHU21623XXSP,2013-01-30 03:26:00,
2013-01-29 21:31:00,60.3,34.4,29.44,NW,315,17.2,17.2,38,0.00,,,0.00,WUHU21623XXSP,2013-01-30 03:31:00,
2013-01-29 21:36:00,60.1,33.5,29.44,West,270,10.3,17.2,37,0.00,,,0.00,WUHU21623XXSP,2013-01-30 03:36:00,
2013-01-29 21:41:00,59.9,33.4,29.44,WNW,292,11.0,11.0,37,0.00,,,0.00,WUHU21623XXSP,2013-01-30 03:41:00,
2013-01-29 21:46:00,59.7,33.2,29.45,NW,315,8.3,11.9,37,0.00,,,0.00,WUHU21623XXSP,2013-01-30 03:46:00,
2013-01-29 21:51:00,59.5,33.1,29.44,West,270,1.1,11.9,37,0.00,,,0.00,WUHU21623XXSP,2013-01-30 03:51:00,
2013-01-29 21:56:00,59.5,33.1,29.46,West,270,5.1,8.9,37,0.00,,,0.00,WUHU21623XXSP,2013-01-30 03:56:00,
2013-01-29 22:01:00,59.4,32.9,29.46,WNW,292,0.7,8.9,37,0.00,,,0.00,WUHU21623XXSP,2013-01-30 04:01:00,
2013-01-29 22:06:00,59.2,32.7,29.46,NW,315,4.7,6.0,37,0.00,,,0.00,WUHU21623XXSP,2013-01-30 04:06:00,
2013-01-29 22:12:00,59.0,31.9,29.46,WNW,292,2.5,9.8,36,0.00,,,0.00,WUHU21623XXSP,2013-01-30 04:12:00,
2013-01-29 22:17:00,58.8,31.7,29.47,West,270,1.8,11.9,36,0.00,,,0.00,WUHU21623XXSP,2013-01-30 04:17:00,
2013-01-29 22:22:00,58.6,31.6,29.47,West,270,6.0,11.9,36,0.00,,,0.00,WUHU21623XXSP,2013-01-30 04:22:00,
2013-01-29 22:27:00,58.5,30.7,29.47,WNW,292,7.8,10.3,35,0.00,,,0.00,WUHU21623XXSP,2013-01-30 04:27:00,
2013-01-29 22:32:00,58.3,30.5,29.47,West,270,10.5,10.5,35,0.00,,,0.00,WUHU21623XXSP,2013-01-30 04:32:00,
2013-01-29 22:37:00,58.1,30.4,29.47,South,180,3.6,10.5,35,0.00,,,0.00,WUHU21623XXSP,2013-01-30 04:37:00,
2013-01-29 22:42:00,58.1,30.4,29.48,NW,315,6.0,9.2,35,0.00,,,0.00,WUHU21623XXSP,2013-01-30 04:42:00,
2013-01-29 22:47:00,57.9,30.2,29.49,WSW,247,5.4,10.1,35,0.00,,,0.00,WUHU21623XXSP,2013-01-30 04:47:00,
2013-01-29 22:52:00,57.9,30.2,29.49,WSW,247,2.0,10.1,35,0.00,,,0.00,WUHU21623XXSP,2013-01-30 04:52:00,
2013-01-29 22:57:00,57.9,30.2,29.49,WNW,292,18.3,18.3,35,0.00,,,0.00,WUHU21623XXSP,2013-01-30 04:57:00,
2013-01-29 23:02:00,57.7,30.1,29.49,West,270,10.3,18.3,35,0.00,,,0.00,WUHU21623XXSP,2013-01-30 05:02:00,
2013-01-29 23:07:00,57.6,29.9,29.49,WSW,247,3.8,10.3,35,0.00,,,0.00,WUHU21623XXSP,2013-01-30 05:07:00,
2013-01-29 23:12:00,57.4,29.7,29.49,NW,315,10.5,10.5,35,0.00,,,0.00,WUHU21623XXSP,2013-01-30 05:12:00,
2013-01-29 23:17:00,57.4,29.0,29.49,West,270,5.4,10.5,34,0.00,,,0.00,WUHU21623XXSP,2013-01-30 05:17:00,
2013-01-29 23:22:00,57.0,28.7,29.49,WNW,292,11.9,11.9,34,0.00,,,0.00,WUHU21623XXSP,2013-01-30 05:22:00,
2013-01-29 23:27:00,57.0,29.4,29.50,NW,315,6.0,11.9,35,0.00,,,0.00,WUHU21623XXSP,2013-01-30 05:27:00,
2013-01-29 23:32:00,56.8,29.2,29.50,WNW,292,1.6,6.9,35,0.00,,,0.00,WUHU21623XXSP,2013-01-30 05:32:00,
2013-01-29 23:37:00,56.7,27.7,29.49,West,270,3.4,6.9,33,0.00,,,0.00,WUHU21623XXSP,2013-01-30 05:37:00,
2013-01-29 23:42:00,56.5,28.2,29.50,WNW,292,1.6,4.9,34,0.00,,,0.00,WUHU21623XXSP,2013-01-30 05:42:00,
2013-01-29 23:47:00,56.3,28.1,29.50,West,270,9.4,12.1,34,0.00,,,0.00,WUHU21623XXSP,2013-01-30 05:47:00,
2013-01-29 23:52:00,56.1,27.2,29.49,WNW,292,6.5,12.1,33,0.00,,,0.00,WUHU21623XXSP,2013-01-30 05:52:00,
2013-01-29 23:57:00,55.9,27.0,29.49,West,270,5.4,11.2,33,0.00,,,0.00,WUHU21623XXSP,2013-01-30 05:57:00,